Sedalia, MO

8:36 AM CDT on July 29, 2016 (GMT -0500)
Sedalia Memorial

Weather History for KDMO - September, 2012

Change the Weather History Date:

Saturday, September 1, 2012

  Actual Average Record
Temperature  
Mean Temperature 75 °F 75 °F  
Max Temperature 78 °F 86 °F 102 °F (2000)
Min Temperature 72 °F 64 °F 43 °F (1949)
Degree Days  
Heating Degree Days 0 0  
Month to date heating degree days 0 0  
Since 1 July heating degree days 0 1  
Cooling Degree Days 10 10  
Month to date cooling degree days 10 10  
Year to date cooling degree days 1922 1295  
Growing Degree Days 26 (Base 50)    
Moisture  
Dew Point 72 °F    
Average Humidity 87    
Maximum Humidity 94    
Minimum Humidity 79    
Precipitation  
Precipitation 0.23 in 0.18 in 1.80 in (1941)
Month to date precipitation 0.23 0.18  
Year to date precipitation 20.77 28.12  
Sea Level Pressure  
Sea Level Pressure 29.80 in    
Wind  
Wind Speed 9 mph (NE)    
Max Wind Speed 17 mph    
Max Gust Speed 23 mph    
Visibility 6 miles    
Events Rain    
T = Trace of Precipitation, MM = Missing Value Source: NWS Daily Summary

Daily Weather History Graph

Daily Weather History Graph

Search for Another Location

Airport or City:

Trip Planner

Search our weather history database for the weather conditions in past years. The results will help you decide how hot, cold, wet, or windy it might be!

Date:

Astronomy

Sep. 01, 2012 Rise Set
Actual Time 6:42 AM CDT 7:42 PM CDT
Civil Twilight 6:15 AM CDT 8:09 PM CDT
Nautical Twilight 5:42 AM CDT 8:41 PM CDT
Astronomical Twilight 5:09 AM CDT 9:14 PM CDT
Moon 8:00 PM CDT (9/1) 7:49 AM CDT (9/1)
Length of Visible Light 13h 54m
Length of Day
12h 59m
Full, 99% of the Moon is Illuminated
Sep 1
Full
Sep 8
Last Quarter
Sep 15
New
Sep 22
First Quarter
Sep 29
Full

Hourly Weather History & Observations

Time (CDT) Temp. Dew Point Humidity Pressure Visibility Wind Dir Wind Speed Gust Speed Precip Events Conditions
12:14 AM 75.2 °F 73.4 °F 94% 29.77 in 3.0 mi ESE 6.9 mph - 0.01 in Rain Light Rain
12:44 AM 75.2 °F 73.4 °F 94% 29.76 in 5.0 mi ESE 8.1 mph - 0.01 in Rain Light Rain
12:53 AM 75.0 °F 73.0 °F 94% 29.74 in 8.0 mi East 8.1 mph - 0.01 in Rain Light Rain
1:53 AM 75.0 °F 73.9 °F 96% 29.73 in 9.0 mi ESE 5.8 mph - 0.04 in   Overcast
2:34 AM 75.2 °F 73.4 °F 94% 29.75 in 7.0 mi ESE 4.6 mph - 0.00 in   Overcast
2:42 AM 75.2 °F 73.4 °F 94% 29.75 in 2.5 mi SE 6.9 mph - 0.00 in   Overcast
2:53 AM 75.0 °F 73.9 °F 96% 29.73 in 2.5 mi SE 6.9 mph - 0.00 in   Overcast
3:00 AM 75.2 °F 73.4 °F 94% 29.75 in 3.0 mi SSE 8.1 mph - 0.00 in Rain Light Rain
3:19 AM 75.2 °F 73.4 °F 94% 29.75 in 10.0 mi South 11.5 mph - 0.01 in   Overcast
3:53 AM 73.9 °F 72.0 °F 93% 29.73 in 10.0 mi SSE 12.7 mph - 0.02 in   Overcast
4:46 AM 73.4 °F 71.6 °F 94% 29.75 in 9.0 mi SSE 9.2 mph - N/A   Overcast
4:53 AM 73.0 °F 72.0 °F 96% 29.73 in 6.0 mi SSE 10.4 mph - N/A   Overcast
5:01 AM 73.4 °F 71.6 °F 94% 29.75 in 7.0 mi SSE 6.9 mph - N/A   Overcast
5:53 AM 73.0 °F 72.0 °F 96% 29.73 in 10.0 mi SE 5.8 mph - N/A   Overcast
6:43 AM 73.4 °F 71.6 °F 94% 29.76 in 2.5 mi SE 5.8 mph - N/A   Overcast
6:53 AM 73.0 °F 71.1 °F 93% 29.74 in 2.0 mi SE 6.9 mph - N/A   Overcast
7:15 AM 73.4 °F 71.6 °F 94% 29.76 in 3.0 mi SE 8.1 mph - 0.01 in   Overcast
7:43 AM 73.4 °F 71.6 °F 94% 29.77 in 3.0 mi SE 8.1 mph - 0.01 in   Overcast
7:46 AM 73.4 °F 71.6 °F 94% 29.77 in 2.5 mi SE 8.1 mph - 0.01 in Rain Light Rain
8:02 AM 73.4 °F 71.6 °F 94% 29.77 in 2.5 mi ESE 6.9 mph - 0.01 in Rain Light Rain
8:13 AM 73.4 °F 71.6 °F 94% 29.77 in 2.5 mi SE 9.2 mph - 0.01 in Rain Light Rain
8:22 AM 73.4 °F 71.6 °F 94% 29.77 in 2.0 mi SE 8.1 mph - 0.02 in Rain Light Rain
8:53 AM 73.0 °F 71.1 °F 93% 29.75 in 2.5 mi ESE 6.9 mph - 0.03 in Rain Light Rain
9:13 AM 73.4 °F 71.6 °F 94% 29.78 in 2.5 mi East 6.9 mph - 0.01 in Rain Light Rain
9:32 AM 73.4 °F 71.6 °F 94% 29.79 in 1.5 mi East 6.9 mph - 0.02 in Rain Light Rain
9:53 AM 73.9 °F 72.0 °F 93% 29.77 in 1.8 mi East 5.8 mph - 0.04 in Rain Light Rain
10:03 AM 73.4 °F 71.6 °F 94% 29.79 in 2.0 mi East 5.8 mph - 0.00 in Rain Light Rain
10:39 AM 73.4 °F 71.6 °F 94% 29.80 in 2.0 mi East 5.8 mph - 0.01 in Rain Light Rain
10:53 AM 73.9 °F 72.0 °F 93% 29.78 in 2.0 mi East 4.6 mph - 0.02 in Rain Light Rain
11:03 AM 73.4 °F 71.6 °F 94% 29.81 in 1.8 mi ENE 4.6 mph - 0.01 in Rain Light Rain
11:17 AM 75.2 °F 73.4 °F 94% 29.81 in 1.8 mi ENE 5.8 mph - 0.02 in Rain Light Rain
11:26 AM 75.2 °F 73.4 °F 94% 29.80 in 2.0 mi NE 5.8 mph - 0.02 in Rain Light Rain
11:31 AM 75.2 °F 73.4 °F 94% 29.81 in 3.0 mi NE 5.8 mph - 0.02 in Rain Light Rain
11:39 AM 75.2 °F 73.4 °F 94% 29.81 in 5.0 mi NE 8.1 mph - 0.02 in   Overcast
11:46 AM 75.2 °F 73.4 °F 94% 29.81 in 5.0 mi NE 8.1 mph - 0.02 in   Overcast
11:53 AM 75.0 °F 73.0 °F 94% 29.78 in 6.0 mi NE 8.1 mph - 0.02 in   Overcast
12:35 PM 75.2 °F 73.4 °F 94% 29.81 in 9.0 mi North 9.2 mph - N/A   Overcast
12:53 PM 75.0 °F 72.0 °F 90% 29.79 in 8.0 mi NNE 6.9 mph - N/A   Overcast
1:06 PM 75.2 °F 73.4 °F 94% 29.81 in 5.0 mi North 5.8 mph - N/A   Overcast
1:18 PM 75.2 °F 71.6 °F 89% 29.81 in 10.0 mi NNE 8.1 mph - N/A   Overcast
1:53 PM 77.0 °F 73.0 °F 88% 29.79 in 10.0 mi North 6.9 mph - N/A   Overcast
2:06 PM 77.0 °F 73.4 °F 89% 29.81 in 10.0 mi NNW 9.2 mph - N/A   Overcast
2:38 PM 77.0 °F 71.6 °F 83% 29.81 in 10.0 mi North 10.4 mph - N/A   Overcast
2:53 PM 78.1 °F 73.0 °F 84% 29.78 in 10.0 mi NNW 10.4 mph - N/A   Overcast
3:07 PM 77.0 °F 73.4 °F 89% 29.81 in 10.0 mi NNW 9.2 mph - N/A   Overcast
3:15 PM 77.0 °F 73.4 °F 89% 29.81 in 10.0 mi NNW 8.1 mph - N/A   Overcast
3:53 PM 78.1 °F 72.0 °F 81% 29.79 in 10.0 mi NNW 10.4 mph - N/A   Overcast
4:26 PM 77.0 °F 73.4 °F 89% 29.81 in 10.0 mi NNW 8.1 mph - 0.00 in Rain Light Rain
4:35 PM 78.8 °F 73.4 °F 83% 29.81 in 10.0 mi NW 10.4 mph - 0.00 in   Overcast
4:53 PM 78.1 °F 73.9 °F 87% 29.79 in 10.0 mi NNW 12.7 mph - 0.01 in Rain Light Rain
5:01 PM 78.8 °F 73.4 °F 83% 29.82 in 10.0 mi NNW 10.4 mph - 0.00 in Rain Light Rain
5:10 PM 75.2 °F 73.4 °F 94% 29.82 in 2.5 mi NNW 16.1 mph 20.7 mph 0.02 in Rain Rain
5:15 PM 75.2 °F 73.4 °F 94% 29.82 in 1.8 mi NNW 12.7 mph 23.0 mph 0.03 in Rain Rain
5:20 PM 75.2 °F 73.4 °F 94% 29.82 in 3.0 mi NNW 13.8 mph 23.0 mph 0.03 in Rain Light Rain
5:31 PM 75.2 °F 73.4 °F 94% 29.83 in 10.0 mi NNW 12.7 mph - 0.03 in   Overcast
5:40 PM 75.2 °F 73.4 °F 94% 29.83 in 10.0 mi NNW 12.7 mph - 0.03 in   Overcast
5:53 PM 75.9 °F 73.9 °F 94% 29.81 in 10.0 mi NNW 11.5 mph - 0.03 in   Overcast
6:10 PM 75.2 °F 73.4 °F 94% 29.84 in 10.0 mi NW 13.8 mph - N/A   Overcast
6:21 PM 75.2 °F 73.4 °F 94% 29.84 in 9.0 mi NNW 13.8 mph - N/A   Overcast
6:30 PM 75.2 °F 73.4 °F 94% 29.84 in 7.0 mi NNW 13.8 mph - 0.00 in Rain Light Rain
6:53 PM 75.0 °F 73.0 °F 94% 29.83 in 10.0 mi NW 11.5 mph 18.4 mph 0.00 in   Overcast
7:09 PM 73.4 °F 71.6 °F 94% 29.85 in 10.0 mi NW 11.5 mph - N/A   Overcast
7:44 PM 73.4 °F 71.6 °F 94% 29.86 in 10.0 mi NW 13.8 mph 20.7 mph N/A   Overcast
7:53 PM 73.9 °F 72.0 °F 93% 29.84 in 4.0 mi NNW 13.8 mph 21.9 mph 0.00 in Rain Light Rain
8:53 PM 73.0 °F 71.1 °F 93% 29.86 in 10.0 mi NNW 10.4 mph - 0.01 in Rain Light Rain
9:53 PM 73.0 °F 71.1 °F 93% 29.88 in 9.0 mi NW 9.2 mph - 0.00 in   Overcast
10:53 PM 73.0 °F 71.1 °F 93% 29.88 in 4.0 mi NW 10.4 mph - N/A   Overcast
11:14 PM 73.4 °F 69.8 °F 88% 29.90 in 6.0 mi NW 9.2 mph - N/A   Overcast
11:53 PM 73.0 °F 70.0 °F 90% 29.88 in 6.0 mi NW 9.2 mph - N/A   Overcast